Weather History for Des Moines, IA

Change the Weather History Date:

Sunday, June 2, 2013

  Actual Average Record
Temperature  
Mean Temperature 60 °F 68 °F  
Max Temperature 67 °F 78 °F 100 °F (1934)
Min Temperature 52 °F 58 °F 43 °F (1888)
Degree Days  
Heating Degree Days 5 2  
Month to date heating degree days 7 4  
Since 1 June heating degree days 7 4  
Since 1 July heating degree days 6009 6189  
Cooling Degree Days 0 4  
Month to date cooling degree days 0 8  
Year to date cooling degree days 102 84  
Since 1 June cooling degree days 0 8  
Growing Degree Days 10 (Base 50)    
Moisture  
Dew Point 45 °F    
Average Humidity 60    
Maximum Humidity 77    
Minimum Humidity 42    
Precipitation  
Precipitation 0.00 in 0.17 in 1.50 in (1941)
Month to date precipitation 0.07 0.33  
Year to date precipitation 18.38 13.51  
Snow  
Snow 0.00 in 0.00 in - ()
Month to date snowfall 0.0 0.0  
Since 1 June snowfall 0.0 0.0  
Since 1 July snowfall 55.2 35.3  
Snow Depth 0.00 in    
Sea Level Pressure  
Sea Level Pressure 30.02 in    
Wind  
Wind Speed 9 mph (NNW)    
Max Wind Speed 23 mph    
Max Gust Speed 29 mph    
Visibility 10 miles    
Events      
T = Trace of Precipitation, MM = Missing Value Source: NWS Daily Summary

Daily Weather History Graph

Daily Weather History Graph

Search for Another Location

Airport:

Trip Planner

Search our weather history database for the weather conditions in past years. The results will help you decide how hot, cold, wet, or windy it might be!

Date:

Astronomy

Jun. 02, 2013 Rise Set
Actual Time 5:42 AM CDT 8:43 PM CDT
Civil Twilight 5:09 AM CDT 9:16 PM CDT
Nautical Twilight 4:26 AM CDT 9:59 PM CDT
Astronomical Twilight 3:37 AM CDT 10:49 PM CDT
Moon 2:13 AM CDT (6/2) 3:10 PM CDT (6/2)
Length of Visible Light 16h 07m
Length of Day
15h 00m
Waning Crescent, 30% of the Moon is Illuminated
Jun 2
Waning Crescent
Jun 8
New
Jun 16
First Quarter
Jun 23
Full
Jun 29
Last Quarter

Hourly Weather History & Observations

Time (CDT) Temp. Dew Point Humidity Pressure Visibility Wind Dir Wind Speed Gust Speed Precip Events Conditions
12:54 AM 57.0 °F 48.9 °F 74% 29.93 in 10.0 mi NW 15.0 mph 23.0 mph N/A   Overcast
1:47 AM 57.0 °F 48.9 °F 74% 29.95 in 10.0 mi NW 13.8 mph 24.2 mph N/A   Overcast
1:54 AM 57.0 °F 48.9 °F 74% 29.94 in 10.0 mi NW 13.8 mph - N/A   Overcast
2:09 AM 57.0 °F 48.0 °F 72% 29.95 in 10.0 mi NW 16.1 mph - N/A   Overcast
2:54 AM 55.9 °F 48.0 °F 75% 29.94 in 10.0 mi NNW 16.1 mph - N/A   Overcast
3:54 AM 55.0 °F 46.0 °F 72% 29.96 in 10.0 mi NNW 11.5 mph - N/A   Overcast
4:54 AM 55.0 °F 46.0 °F 72% 29.98 in 10.0 mi North 11.5 mph - N/A   Overcast
5:54 AM 55.0 °F 45.0 °F 69% 30.01 in 10.0 mi North 10.4 mph - N/A   Overcast
6:54 AM 55.0 °F 46.9 °F 74% 30.02 in 10.0 mi NNW 12.7 mph - N/A   Overcast
7:54 AM 55.0 °F 43.0 °F 64% 30.03 in 10.0 mi North 11.5 mph 25.3 mph N/A   Scattered Clouds
8:54 AM 55.0 °F 42.1 °F 62% 30.06 in 10.0 mi NNW 16.1 mph 26.5 mph N/A   Scattered Clouds
9:54 AM 57.9 °F 42.1 °F 56% 30.06 in 10.0 mi North 17.3 mph 28.8 mph N/A   Scattered Clouds
10:54 AM 59.0 °F 43.0 °F 55% 30.06 in 10.0 mi North 12.7 mph - N/A   Mostly Cloudy
11:54 AM 59.0 °F 43.0 °F 55% 30.07 in 10.0 mi NNW 12.7 mph - N/A   Mostly Cloudy
12:54 PM 60.1 °F 44.1 °F 55% 30.07 in 10.0 mi NNE 10.4 mph - N/A   Mostly Cloudy
1:54 PM 61.0 °F 44.1 °F 54% 30.06 in 10.0 mi North 8.1 mph - N/A   Mostly Cloudy
2:54 PM 64.0 °F 43.0 °F 46% 30.06 in 10.0 mi North 8.1 mph - N/A   Scattered Clouds
3:54 PM 64.0 °F 45.0 °F 50% 30.05 in 10.0 mi NNE 6.9 mph - N/A   Mostly Cloudy
4:54 PM 66.0 °F 44.1 °F 45% 30.04 in 10.0 mi NW 8.1 mph - N/A   Scattered Clouds
5:54 PM 64.0 °F 43.0 °F 46% 30.03 in 10.0 mi Variable 3.5 mph - N/A   Scattered Clouds
6:54 PM 66.0 °F 43.0 °F 43% 30.02 in 10.0 mi NNE 4.6 mph - N/A   Partly Cloudy
7:54 PM 64.9 °F 43.0 °F 45% 30.02 in 10.0 mi NNW 4.6 mph - N/A   Partly Cloudy
8:54 PM 61.0 °F 43.0 °F 52% 30.02 in 10.0 mi North 4.6 mph - N/A   Partly Cloudy
9:54 PM 60.1 °F 44.1 °F 55% 30.03 in 10.0 mi Calm Calm - N/A   Partly Cloudy
10:54 PM 59.0 °F 45.0 °F 60% 30.04 in 10.0 mi Calm Calm - N/A   Clear
11:54 PM 52.0 °F 44.1 °F 74% 30.04 in 10.0 mi SSE 3.5 mph - N/A   Partly Cloudy